sat.trackr.live / text

‹ back to catalog

STARLINK-2566

NORAD 48287 · 2021-036M

PAYLOAD ACTIVE UNKNOWN

§ Identity

Operator
Country
US
Launch date
2021-04-29
Launch site
AFETR
Launch vehicle
Mass (kg)
RCS (m²)

Purposes: comms

External: N2YO · Heavens-Above · Gunter

§ Orbital elements

Epoch: 2026-09-19T13:16:32.225664Z

Period
94.01 min
Inclination
53.1604°
Eccentricity
0.0001657
Mean motion
15.31691861 rev/d
Perigee alt
469.6 km
Apogee alt
471.9 km
Semi-major
6,848.9 km
B*
-2.5038e-5
RAAN
255.6034°
Arg perigee
66.0404°
Mean anomaly
294.0771°
Rev number
29,807

§ Raw data

STARLINK-25661 48287U 21036M   26262.55315076 -.00001142  00000+0 -25038-4 0  99922 48287  53.1604 255.6034 0001657  66.0404 294.0771 15.31691861298071

JSON: /api/v1/satellites/48287 · /tle

For live sub-satellite position, see the globe view (requires WebGL).

§ Visibility from observer

Set your observer location to see the next 7 days of passes ≥ 10°. The values pass through the URL so the page stays shareable.

No JS? Fill the form by hand. The geolocation button needs JavaScript.